Wind_Speed
39 41 41 39 37 35 34 32 32 31 30 28 28 28 29 29 28 28 28 29 30 30 31 32 33 35 36 37 39 41 42 43 43 44 45 47 47 47 48 49 50 52 53
42 41 41 39 37 36 35 34 33 31 30 30 30 30 30 30 29 29 29 30 30 31 33 34 35 36 38 40 41 43 44 45 45 45 45 46 47 48 50 51 53 55 57
46 44 42 40 38 37 36 35 34 32 31 30 30 30 30 31 30 30 30 31 31 33 34 36 37 39 40 42 43 44 46 47 47 48 48 48 48 48 49 52 55 57 59
48 47 44 41 39 39 38 37 35 33 31 30 29 30 31 31 31 31 31 32 33 35 36 38 40 41 42 43 45 46 47 48 49 50 51 53 54 55 53 53 56 58 59
50 48 45 41 40 40 39 37 35 33 31 30 29 29 30 30 31 31 32 33 35 36 38 40 41 42 44 45 46 47 49 50 51 52 54 56 58 60 60 59 59 60 60
51 49 46 43 41 40 39 37 35 34 31 29 29 29 29 30 31 32 33 34 36 37 39 40 42 43 45 46 47 49 51 52 53 55 57 59 61 63 64 64 64 64 64
51 49 46 43 40 39 38 37 35 33 31 30 29 29 29 30 31 32 34 35 37 38 39 41 43 44 46 47 49 51 52 54 56 58 60 62 65 66 67 68 68 68 68
51 48 45 42 40 39 38 37 35 33 31 30 30 30 30 30 32 33 34 35 37 38 40 42 44 45 47 49 50 52 54 56 58 60 63 65 67 68 70 71 73 73 73
49 46 44 42 40 40 38 37 34 32 31 31 30 30 30 31 32 33 34 36 37 39 41 43 45 47 48 50 52 54 56 58 61 63 65 67 68 69 72 75 78 81 82
47 45 43 41 40 39 38 36 34 32 31 30 30 30 30 31 32 33 35 36 38 40 42 44 46 48 50 52 53 55 58 61 64 66 67 68 69 72 75 78 83 88 92
44 43 42 41 40 38 37 35 33 31 30 30 30 30 30 31 32 33 35 37 39 41 44 46 48 50 52 53 55 58 61 64 66 67 68 69 72 74 79 83 88 94 100
42 41 40 39 38 37 35 33 31 31 30 30 30 30 30 31 32 34 35 38 40 43 45 47 49 51 53 55 58 61 64 65 67 68 69 71 74 79 84 89 94 100 106
39 38 38 37 36 35 33 31 30 30 29 29 29 29 29 31 33 34 37 39 42 44 46 48 50 52 55 57 60 63 65 67 68 69 71 75 79 84 89 94 100 105 107
35 35 35 34 33 33 31 30 29 28 28 28 28 28 30 31 33 36 38 41 43 45 47 49 52 54 57 60 63 65 66 67 69 71 75 79 84 89 95 100 105 106 105
32 32 31 31 31 30 29 28 27 27 27 27 27 28 30 32 35 37 40 42 44 46 49 51 53 56 59 62 64 66 66 68 70 74 79 84 90 95 101 105 105 102 96
29 29 29 29 28 27 27 26 26 26 26 27 27 29 31 33 36 39 41 43 45 48 50 52 55 58 61 63 65 66 67 70 74 78 83 89 95 100 103 104 99 91 83
27 27 26 26 26 25 25 25 25 25 25 26 27 30 32 35 37 40 42 44 47 49 51 54 57 60 62 64 65 66 69 73 78 83 88 94 99 103 102 96 86 76 68
24 24 24 24 23 23 23 23 23 23 25 26 29 32 34 36 38 40 42 45 48 50 53 56 59 61 63 63 65 68 72 77 82 88 94 98 101 100 95 85 72 62 54
22 22 21 21 20 20 21 21 22 24 26 28 31 33 35 37 39 41 44 46 48 52 55 58 60 61 62 64 67 71 76 81 86 92 98 101 99 93 84 72 59 50 43
18 18 18 18 19 20 20 22 24 26 28 30 32 33 35 37 40 42 45 47 50 53 56 58 60 61 63 66 70 75 80 85 90 96 99 97 91 81 69 58 47 39 35
16 16 17 18 19 20 21 23 25 27 28 30 32 34 36 38 41 43 46 49 52 54 56 58 59 62 65 70 75 80 85 90 95 97 94 87 78 66 56 47 39 34 32
15 16 17 18 19 20 22 23 25 26 28 30 32 34 37 39 41 44 47 50 52 54 55 57 60 64 69 73 78 83 89 94 96 92 85 74 63 53 45 38 33 31 31
16 16 17 18 18 20 21 23 25 26 28 31 33 35 38 40 43 46 49 51 53 54 55 58 61 66 71 76 81 87 92 94 91 82 71 61 50 42 36 32 30 29 29
15 15 16 17 19 20 22 23 25 27 29 31 34 36 39 42 44 47 49 51 52 54 57 60 64 69 74 79 84 89 92 90 81 69 57 47 39 34 31 29 29 29 29
14 15 16 17 19 20 22 24 26 28 30 33 35 38 41 43 45 47 49 51 53 56 59 63 68 73 78 83 89 92 89 81 69 55 44 37 32 30 29 29 30 29 30
14 15 16 18 19 21 22 25 27 30 32 35 37 40 42 44 45 47 49 51 54 58 63 68 73 78 83 87 90 87 79 67 55 44 36 31 28 27 27 27 28 30 30
Wind_Direction
241 242 244 244 243 244 246 246 247 248 250 251 251 252 252 253 255 258 262 266 269 272 276 280 285 288 291 293 294 294 294 294 294 295 295 295 295 295 295 295 295 295 294
241 242 243 243 243 243 245 246 247 247 249 250 250 250 252 254 256 259 262 266 270 273 277 282 286 289 292 293 294 295 295 296 296 296 295 295 296 296 297 297 296 296 296
241 241 242 242 241 242 243 245 246 247 247 248 249 250 252 255 257 260 264 267 271 275 280 284 287 290 292 294 295 296 297 298 298 297 297 296 294 294 295 296 296 297 296
240 239 239 240 239 240 242 244 246 246 247 247 248 249 252 254 258 261 265 269 273 278 282 286 289 291 293 294 296 297 298 299 299 299 299 298 298 297 296 295 295 295 295
238 237 237 237 237 238 241 243 245 246 246 247 249 251 253 256 259 263 267 271 276 280 284 287 290 292 294 296 298 299 299 300 300 300 300 300 300 300 299 298 297 296 296
234 233 232 233 234 236 239 242 244 244 246 247 249 251 254 257 260 265 269 273 277 281 285 288 291 294 296 298 299 300 300 301 301 301 301 301 301 300 300 299 298 297 296
229 229 228 229 231 233 236 239 241 242 244 246 249 252 256 259 263 267 271 275 279 283 287 290 293 295 297 298 299 301 301 302 302 302 302 303 302 302 301 301 299 298 298
224 224 223 223 226 229 232 236 238 239 242 245 249 253 257 261 265 269 273 278 282 286 289 292 294 296 298 299 300 301 302 302 302 303 303 304 303 303 303 302 302 300 300
218 218 218 218 222 225 229 232 235 237 240 244 249 254 258 263 267 272 276 280 284 288 291 294 296 297 299 300 301 302 302 302 303 304 305 305 305 305 305 305 305 304 303
212 212 212 214 218 222 226 230 233 236 240 245 250 255 260 265 269 274 279 283 287 290 293 295 297 298 300 300 302 302 303 304 305 305 306 306 306 306 306 307 307 307 306
204 205 207 212 216 220 224 228 232 236 241 246 252 256 262 267 272 277 281 285 288 291 294 296 298 299 301 302 303 304 305 306 306 307 307 307 307 308 308 308 308 308 308
196 201 205 211 215 219 223 226 230 236 242 247 253 259 265 270 275 280 284 287 290 293 295 297 299 300 302 303 304 305 306 307 307 308 308 308 309 309 309 310 310 310 310
193 198 204 209 214 217 220 224 230 236 243 249 255 261 268 273 278 283 286 289 292 294 296 298 300 302 303 304 306 307 308 308 308 309 309 310 310 311 311 311 311 311 311
189 196 202 207 211 214 218 223 230 237 244 251 257 264 271 276 281 285 288 291 293 296 298 300 301 303 304 306 307 308 309 309 310 311 311 312 312 312 312 313 313 313 312
188 194 199 204 208 212 217 224 231 239 246 253 261 268 274 279 283 286 290 292 295 297 299 301 303 304 306 307 308 309 310 310 311 312 313 313 313 314 314 315 315 314 313
187 192 197 202 206 211 218 226 233 241 250 258 266 273 278 282 285 289 291 294 296 298 300 302 304 306 307 309 309 310 311 312 313 313 314 314 315 315 316 316 316 315 315
187 191 197 202 207 214 221 229 238 248 257 265 272 277 281 285 288 291 293 296 298 300 302 304 306 308 309 310 311 312 313 314 314 315 315 316 316 317 317 317 316 315 315
190 195 200 205 212 220 229 239 248 257 265 271 276 280 284 287 290 293 295 298 300 302 304 306 307 309 310 311 312 313 314 315 316 316 317 317 318 318 317 317 316 316 315
194 199 205 213 222 231 240 249 258 265 271 276 280 284 287 290 292 295 297 299 301 304 306 307 309 310 311 312 313 314 315 316 317 318 318 318 318 318 317 317 318 317 317
204 211 218 227 235 243 251 258 265 270 275 279 283 286 289 292 294 297 299 301 303 305 307 309 310 311 312 313 314 315 317 318 318 319 319 319 319 319 318 319 319 319 319
218 225 233 240 246 253 259 265 270 275 279 283 286 289 292 294 296 299 301 303 305 307 309 310 311 313 314 315 317 318 319 319 320 320 320 320 319 319 319 320 321 321 321
230 236 242 248 254 260 265 270 274 279 283 286 289 292 294 297 299 301 303 305 307 308 310 312 313 314 316 317 318 319 320 320 321 321 321 320 319 319 320 321 322 323 322
238 243 249 254 260 266 271 275 279 283 286 289 292 294 297 299 300 303 305 307 308 310 311 313 314 316 317 318 319 320 321 321 322 322 321 321 321 321 322 323 324 324 324
244 249 255 262 268 272 276 279 283 286 290 292 295 297 299 301 303 305 307 308 310 311 313 314 316 317 318 319 320 321 322 322 323 322 322 322 323 324 325 327 328 329 328
250 256 261 266 272 276 280 283 287 290 293 296 298 300 302 303 305 307 309 310 311 313 314 316 317 318 319 320 321 323 323 324 324 324 324 325 326 327 329 330 331 332 332
257 263 268 273 278 282 285 288 291 294 297 298 300 302 303 305 307 309 311 312 314 315 316 318 319 320 321 322 323 324 324 325 325 326 326 326 328 329 331 332 333 333 333
Height
5733 5736 5739 5743 5747 5750 5752 5754 5756 5758 5760 5762 5763 5764 5764 5765 5766 5767 5767 5767 5767 5766 5766 5765 5763 5762 5760 5757 5754 5751 5748 5745 5742 5738 5734 5729 5725 5721 5717 5713 5708 5704 5699
5724 5728 5731 5735 5739 5742 5745 5747 5749 5751 5754 5755 5757 5758 5758 5759 5760 5761 5761 5761 5760 5760 5759 5757 5756 5754 5751 5748 5745 5742 5738 5735 5731 5728 5724 5720 5717 5711 5706 5701 5696 5691 5686
5715 5718 5722 5727 5731 5734 5737 5739 5742 5744 5747 5749 5750 5751 5752 5753 5754 5754 5754 5754 5753 5752 5751 5750 5748 5745 5742 5739 5736 5732 5728 5723 5719 5716 5712 5708 5706 5703 5699 5692 5685 5679 5672
5704 5709 5713 5718 5722 5726 5729 5732 5735 5737 5740 5742 5744 5745 5746 5747 5747 5748 5747 5747 5746 5745 5743 5742 5739 5736 5733 5729 5725 5721 5717 5712 5708 5703 5698 5694 5689 5686 5685 5682 5674 5667 5660
5692 5698 5704 5710 5714 5717 5721 5725 5728 5730 5733 5735 5737 5738 5739 5740 5740 5740 5740 5740 5739 5737 5735 5733 5730 5727 5723 5719 5715 5710 5705 5701 5696 5691 5685 5680 5674 5668 5664 5663 5660 5653 5645
5680 5687 5694 5700 5705 5709 5713 5717 5721 5723 5726 5728 5730 5731 5732 5733 5733 5733 5733 5732 5731 5729 5727 5724 5721 5717 5713 5709 5704 5699 5694 5688 5683 5677 5671 5666 5660 5653 5647 5643 5640 5635 5630
5668 5676 5684 5691 5697 5702 5706 5710 5713 5716 5719 5721 5723 5725 5726 5726 5726 5726 5726 5725 5723 5721 5718 5715 5712 5708 5703 5698 5693 5688 5682 5676 5670 5664 5657 5650 5643 5636 5629 5623 5618 5615 5610
5656 5666 5675 5683 5689 5694 5698 5702 5706 5710 5712 5715 5716 5718 5719 5719 5719 5719 5718 5716 5715 5712 5709 5706 5702 5698 5693 5688 5682 5676 5670 5664 5657 5650 5643 5635 5627 5619 5610 5603 5596 5592 5589
5645 5657 5666 5674 5681 5686 5691 5695 5699 5703 5706 5708 5710 5711 5712 5712 5712 5711 5710 5708 5706 5704 5700 5697 5692 5687 5682 5677 5671 5665 5658 5651 5644 5636 5628 5620 5611 5602 5593 5583 5573 5564 5560
5636 5647 5658 5666 5673 5679 5684 5689 5693 5696 5699 5702 5703 5704 5705 5705 5704 5703 5702 5700 5698 5695 5691 5687 5682 5677 5671 5665 5659 5652 5645 5638 5630 5622 5613 5604 5595 5586 5575 5565 5553 5540 5528
5629 5641 5651 5659 5666 5672 5678 5683 5687 5690 5693 5695 5697 5698 5698 5698 5697 5696 5694 5692 5689 5686 5681 5677 5671 5666 5660 5654 5647 5640 5632 5624 5616 5607 5598 5589 5579 5569 5558 5546 5533 5518 5501
5624 5636 5645 5654 5661 5667 5672 5677 5681 5685 5687 5689 5690 5691 5691 5690 5689 5688 5686 5683 5680 5676 5671 5666 5661 5655 5648 5642 5635 5627 5619 5610 5602 5592 5583 5573 5563 5552 5539 5526 5511 5495 5476
5622 5632 5641 5649 5656 5662 5667 5672 5676 5678 5681 5682 5683 5684 5684 5683 5682 5680 5678 5674 5670 5666 5661 5656 5650 5643 5636 5629 5622 5614 5605 5596 5587 5577 5567 5557 5545 5533 5520 5505 5488 5471 5452
5621 5630 5638 5645 5652 5657 5662 5666 5670 5673 5675 5676 5677 5677 5677 5676 5674 5672 5669 5665 5661 5656 5651 5645 5638 5632 5624 5617 5609 5600 5591 5582 5572 5561 5551 5539 5526 5512 5498 5482 5464 5445 5426
5620 5628 5636 5642 5648 5653 5658 5662 5665 5667 5669 5670 5670 5670 5670 5668 5666 5663 5660 5655 5651 5646 5640 5634 5627 5620 5612 5604 5596 5587 5578 5568 5558 5546 5533 5520 5505 5490 5473 5455 5437 5418 5400
5620 5627 5634 5639 5645 5649 5653 5656 5659 5661 5662 5663 5664 5663 5662 5660 5657 5654 5650 5645 5640 5635 5629 5623 5616 5608 5600 5591 5582 5573 5564 5553 5542 5530 5516 5501 5485 5469 5451 5431 5412 5392 5376
5620 5626 5632 5637 5641 5645 5648 5651 5653 5655 5656 5657 5657 5656 5654 5651 5648 5644 5640 5635 5630 5624 5618 5611 5604 5596 5587 5578 5569 5559 5549 5537 5524 5511 5497 5482 5464 5445 5428 5412 5394 5378 5362
5620 5625 5629 5634 5638 5641 5644 5647 5649 5650 5650 5650 5649 5647 5645 5642 5639 5635 5630 5625 5619 5613 5607 5599 5592 5583 5574 5565 5555 5546 5534 5522 5507 5492 5476 5460 5443 5423 5407 5393 5379 5365 5352
5619 5623 5627 5631 5635 5638 5640 5642 5643 5643 5643 5642 5641 5639 5636 5633 5629 5625 5620 5615 5609 5602 5595 5587 5579 5571 5562 5552 5542 5531 5519 5506 5491 5474 5455 5437 5421 5404 5388 5375 5365 5354 5344
5618 5622 5626 5629 5631 5634 5635 5637 5637 5637 5636 5635 5633 5630 5628 5624 5620 5615 5610 5604 5598 5591 5584 5575 5566 5558 5549 5538 5527 5515 5503 5490 5474 5456 5436 5416 5399 5384 5370 5360 5352 5345 5337
5617 5620 5623 5625 5627 5629 5630 5630 5630 5629 5628 5627 5625 5622 5618 5614 5610 5605 5600 5594 5587 5580 5572 5564 5554 5545 5535 5523 5511 5497 5482 5468 5453 5435 5417 5399 5382 5369 5358 5350 5343 5336 5330
5614 5617 5619 5621 5623 5624 5624 5624 5623 5622 5621 5619 5616 5613 5609 5605 5600 5595 5589 5583 5576 5569 5560 5552 5542 5531 5519 5508 5495 5481 5464 5448 5432 5415 5398 5383 5370 5358 5349 5342 5336 5330 5324
5611 5613 5615 5616 5617 5618 5618 5617 5616 5615 5613 5611 5608 5604 5600 5596 5591 5585 5579 5572 5564 5557 5548 5540 5530 5519 5507 5494 5480 5465 5448 5431 5414 5397 5381 5369 5358 5350 5342 5336 5330 5325 5319
5607 5609 5610 5611 5612 5612 5611 5611 5609 5608 5605 5603 5599 5595 5591 5586 5580 5574 5568 5560 5553 5545 5536 5527 5517 5506 5493 5479 5466 5450 5433 5416 5399 5384 5371 5360 5351 5343 5337 5331 5325 5320 5314
5604 5605 5606 5606 5606 5606 5605 5604 5602 5600 5597 5594 5590 5586 5581 5576 5570 5563 5556 5549 5541 5532 5523 5514 5503 5491 5478 5463 5447 5430 5414 5398 5384 5372 5362 5353 5346 5339 5333 5327 5321 5315 5309
5600 5601 5601 5601 5601 5600 5599 5597 5595 5592 5589 5586 5581 5577 5571 5566 5559 5553 5545 5536 5529 5519 5509 5498 5486 5473 5459 5444 5429 5412 5396 5382 5372 5362 5355 5348 5342 5336 5330 5324 5318 5311 5305